Location: Unspecified
(43.4680°N, 87.1740°E)
Time: 19:32:11
(UTC+00:00)

Daily predictions for brighter satellites

Satellite Brightness Start Highest point End
(mag) Time Altitude Azimuth Time Altitude Azimuth Time Altitude Azimuth
Meteor 2-9 4.5 12:00:08 10° N 12:05:33 77° E 12:10:54 10° SSE
Cosmos 2297 Rocket 2.1 12:01:48 10° NNW 12:07:30 80° ENE 12:13:09 10° SSE
Meteor 1-25 Rocket 4.2 12:01:47 10° N 12:07:35 62° ENE 12:13:17 10° SSE
Cosmos 1656 4.3 12:02:45 10° SW 12:08:15 57° WNW 12:13:52 10° NNE
Helios 1A Rocket 4.1 12:10:54 19° SE 12:10:54 19° SE 12:12:22 10° SSE
Cosmos 1606 Rocket 3.5 12:05:47 10° S 12:10:05 59° E 12:13:41 15° NNE
USA 290 2.0 12:08:04 10° NNW 12:11:20 77° ENE 12:14:34 10° SSE
Cosmos 1503 Rocket 3.9 12:07:38 10° SSW 12:12:54 85° ESE 12:17:20 15° NNE
CZ-2D R/B 4.2 12:12:01 10° S 12:14:58 39° W 12:17:58 10° NNW
Cosmos 2151 3.1 12:11:22 10° NNW 12:15:30 72° W 12:19:37 10° S
Resurs 1-3 3.7 12:13:13 10° SE 12:17:18 45° ENE 12:21:25 10° N
Cosmos 1354 Rocket 3.9 12:14:23 10° S 12:19:37 68° ESE 12:22:55 23° NNE
Okean 1-7 Rocket 3.4 12:15:28 10° N 12:19:53 88° ENE 12:24:15 10° S
CZ-4C R/B 3.0 12:15:58 10° NNW 12:23:01 66° NE 12:31:42 10° SE
Meteor 1-5 Rocket 4.1 12:18:02 10° N 12:23:15 53° ENE 12:28:33 10° SSE
Spot 4 Rocket 3.9 12:18:16 10° SSE 12:23:16 61° ENE 12:28:19 10° N
SL-19 R/B 4.2 12:18:49 10° SE 12:23:57 53° ENE 12:29:19 10° N
BlueWalker 3 1.9 12:22:35 10° WNW 12:26:12 73° SW 12:27:16 42° SE
Cosmos 1743 4.4 12:26:53 10° NNW 12:29:45 29° W 12:32:35 10° SSW
Cosmos 724 4.3 12:23:42 10° NNW 12:29:46 88° WSW 12:35:39 10° SSE
MOS 1 Rocket 4.2 12:26:56 10° S 12:31:33 53° W 12:36:30 10° NNW
Cosmos 1461 2.8 12:28:07 10° SW 12:31:59 72° NW 12:32:56 48° NNE
Cosmos 1980 Rocket 2.7 12:27:14 10° S 12:32:19 36° ESE 12:32:19 36° ESE
ATLAS CENTAUR R/B 1.5 12:30:20 10° NW 12:33:29 50° WSW 12:34:31 33° S
CENTAUR R/B 4.3 12:29:51 10° WNW 12:34:40 23° NNW 12:39:33 12° NNE
SKYMED 2 3.7 12:31:28 17° N 12:34:47 75° WNW 12:39:07 10° SSW
USA 238 DEB 3.9 12:29:30 10° S 12:35:03 40° ESE 12:35:57 38° E
USA 238 3.9 12:29:37 10° S 12:35:10 40° ESE 12:36:01 38° E
BREEZE-M DEB (TANK) 3.5 12:34:07 10° W 12:34:50 20° WNW 12:34:50 20° WNW
Cosmos 1726 Rocket 3.6 12:32:12 10° S 12:36:51 85° E 12:39:25 27° N
PSLV R/B 4.0 12:34:58 10° SSE 12:40:10 43° N 12:42:59 10° N
Cosmos 1867 3.5 12:34:44 10° NNW 12:40:11 66° NE 12:41:49 44° ESE
COSMO-SKYMED 1 2.3 12:40:11 56° NNE 12:41:02 86° E 12:45:09 10° SSW
NOSS 2-3 (C) 4.5 12:38:14 10° SSW 12:40:09 27° S 12:40:09 27° S
USA 215 4.0 12:42:23 32° NE 12:43:43 35° NNE 12:49:30 10° NW
Lacrosse 5 rocket 3.6 12:46:08 10° NW 12:47:40 12° NNW 12:47:40 12° NNW
Cosmos 1900 4.2 12:43:57 10° NNW 12:49:01 82° NE 12:50:03 57° SE
CZ-2D R/B 3.9 12:44:51 10° S 12:49:01 62° WSW 12:53:11 10° NNW
Cosmos 2263 Rocket 2.7 12:44:14 10° NNW 12:48:35 40° NNE 12:48:35 40° NNE
Cosmos 1607 4.2 12:43:35 10° NW 12:49:47 69° WSW 12:56:01 10° SSE
Cosmos 2084 Rocket 3.6 12:46:39 10° NW 12:50:08 59° NNW 12:50:08 59° NNW
YAOGAN 1 2.6 12:47:18 10° S 12:51:33 73° WSW 12:55:49 10° NNW
Cosmos 2227 Rocket 2.0 12:52:43 10° NNW 12:58:24 87° ENE 13:00:46 37° SSE
USA 81 3.9 12:54:30 10° N 12:59:48 82° E 13:05:04 10° S
Cosmos 1553 Rocket 4.2 12:55:20 10° SSE 12:59:59 47° SE 12:59:59 47° SE
IRAS Rocket 4.4 13:00:20 10° S 13:05:49 70° WSW 13:11:18 10° NNW
NOAA 6 4.0 13:01:36 10° SSE 13:06:43 81° WSW 13:11:50 10° NNW
Cosmos 1697 Rocket 3.4 13:09:14 10° SW 13:14:37 49° WNW 13:16:41 33° N
Cosmos 1244 Rocket 4.4 13:18:09 10° N 13:24:29 88° W 13:30:41 10° S
NOSS 3-2 (C) 4.5 13:21:55 10° WSW 13:26:34 33° NW 13:27:45 30° NNW
CZ-4C R/B 4.4 14:04:37 10° NW 14:11:19 35° WSW 14:19:04 10° S
Cosmos 1980 Rocket 4.0 14:11:07 10° WSW 14:14:07 27° W 14:14:07 27° W
CZ-3 Stage 3 4.3 22:07:05 42° SSW 22:09:30 47° S 22:37:47 10° ESE
USA 59 Rocket 2.6 22:17:39 17° ENE 22:17:39 17° ENE 22:19:23 10° E
CZ-3 R/B 4.2 22:16:58 37° SW 22:20:48 40° SSW 22:30:25 10° SE
SL-16 R/B 4.2 22:41:13 14° N 22:44:37 23° NE 22:49:05 10° ESE
Cosmos 2082 Rocket 2.4 22:43:38 55° SSE 22:44:42 67° ESE 22:50:16 10° NNE
COSMOS 2455 3.3 22:48:39 41° N 22:50:28 56° NE 22:56:22 10° SE
Cosmos 2279 Rocket 3.9 23:00:29 65° WSW 23:00:29 65° WSW 23:06:29 10° S
FengYun 1-2 T 4.3 22:54:51 10° NNE 23:00:32 81° ESE 23:06:12 10° SSW
IRS-1D 4.0 22:58:17 10° NNE 23:03:13 58° ESE 23:08:14 10° S
Cosmos 1898 Rocket 3.9 23:01:45 35° N 23:03:47 60° ENE 23:08:59 10° SSE
Cosmos 1933 3.9 23:06:56 52° ESE 23:06:56 52° ESE 23:10:09 10° SSE
Cosmos 1980 Rocket 2.2 23:08:49 59° SW 23:08:49 59° SW 23:13:56 10° S
Cosmos 468 Rocket 4.4 23:10:35 46° NNW 23:10:35 46° NNW 23:14:27 10° NNE
BREEZE-M DEB (TANK) 3.9 23:09:01 49° W 23:10:47 69° SSW 23:14:38 10° SE
Cosmos 967 Rocket 4.4 23:10:39 53° WNW 23:11:57 66° WSW 23:18:20 10° SSE
Cosmos 2369 3.7 23:10:23 41° NNW 23:12:30 84° ENE 23:18:09 10° SSE
Cosmos 2180 Rocket 4.4 23:09:19 21° NNW 23:13:39 73° W 23:19:57 10° S
Aureole 1 Rocket 4.2 23:19:27 25° NNW 23:23:56 72° WSW 23:31:23 10° S
Cosmos 2098 Rocket 3.9 23:24:40 47° W 23:24:52 47° W 23:30:22 10° SSW
NOAA 12 4.0 23:22:21 10° NNE 23:27:41 86° ESE 23:32:56 10° SSW
Cosmos 1937 Rocket 3.6 23:25:35 22° NNW 23:28:51 72° ENE 23:33:58 10° SSE
SL-24 R/B 4.4 23:23:58 10° NNE 23:29:27 85° ESE 23:34:11 10° SSW
SKYMED 2 3.4 23:26:07 10° SSE 23:30:27 83° WSW 23:32:24 33° NNW
COSMO-SKYMED 1 2.7 23:26:47 10° SSE 23:30:51 66° ENE 23:33:51 18° N
Cosmos 2026 Rocket 4.3 23:26:18 10° S 23:32:16 65° E 23:38:17 10° NNE
USA 234 4.5 23:27:37 10° ENE 23:32:56 27° N 23:35:46 20° NNW
Cosmos 2333 Rocket 3.4 23:27:51 10° NNW 23:33:13 39° ENE 23:38:33 10° SE
Cosmos 2058 Rocket 4.5 23:29:32 10° N 23:33:42 38° ENE 23:37:48 10° SE
Cosmos 372 Rocket 3.9 23:33:56 41° NW 23:35:28 59° WSW 23:40:26 10° S
SJ-11-01 4.4 23:31:28 10° N 23:35:59 48° WNW 23:40:28 10° SW
Cosmos 2360 Rocket 3.8 23:35:46 10° N 23:40:44 31° NE 23:45:39 10° ESE
Cosmos 220 Rocket 3.7 23:39:21 14° SSW 23:42:42 65° WNW 23:46:48 10° NNE
Cosmos 1484 Rocket 3.4 23:44:19 10° NNE 23:47:39 49° E 23:50:56 10° S
Tiangong -1.1 23:50:19 32° SW 23:50:47 34° SSW 23:53:45 10° SE
Okean 1 4.4 23:47:50 10° N 23:51:12 38° ENE 23:54:31 10° SSE
BREEZE-M DEB (TANK) 3.5 23:53:17 30° NNW 23:53:31 30° N 23:57:06 10° ENE
Cosmos 1606 Rocket 3.8 23:52:04 27° NW 23:54:00 44° W 23:58:11 10° SSW
